Weather History for KBKW - June, 2014

Change the Weather History Date:

Thursday, June 12, 2014

  Actual Average Record
Temperature  
Mean Temperature 69 °F 67 °F  
Max Temperature 77 °F 76 °F 90 °F (1947)
Min Temperature 60 °F 57 °F 38 °F (1910)
Degree Days  
Heating Degree Days 0 1  
Month to date heating degree days 8 27  
Since 1 June heating degree days 8 27  
Since 1 July heating degree days 5439 5328  
Cooling Degree Days 4 3  
Month to date cooling degree days 47 30  
Year to date cooling degree days 122 71  
Since 1 June cooling degree days 47 30  
Growing Degree Days 20 (Base 50)    
Moisture  
Dew Point 61 °F    
Average Humidity 77    
Maximum Humidity 93    
Minimum Humidity 60    
Precipitation  
Precipitation 1.14 in 0.12 in 1.48 in (1915)
Month to date precipitation 2.48 1.61  
Year to date precipitation 16.60 18.77  
Snow  
Snow 0.00 in - - ()
Month to date snowfall 0.0  
Since 1 September snowfall 76.3  
Snow Depth 0.00 in    
Sea Level Pressure  
Sea Level Pressure 29.89 in    
Wind  
Wind Speed 7 mph (SSW)    
Max Wind Speed 22 mph    
Max Gust Speed 28 mph    
Visibility 8 miles    
Events Rain    
T = Trace of Precipitation, MM = Missing Value Source: NWS Daily Summary

Daily Weather History Graph

Daily Weather History Graph

Search for Another Location

Airport or City:

Trip Planner

Search our weather history database for the weather conditions in past years. The results will help you decide how hot, cold, wet, or windy it might be!

Date:

Astronomy

Jun. 12, 2014 Rise Set
Actual Time 6:01 AM EDT 8:46 PM EDT
Civil Twilight 5:30 AM EDT 9:18 PM EDT
Nautical Twilight 4:51 AM EDT 9:57 PM EDT
Astronomical Twilight 4:07 AM EDT 10:41 PM EDT
Moon 8:19 PM EDT (6/12) 5:39 AM EDT (6/12)
Length of Visible Light 15h 47m
Length of Day
14h 44m
Full, 100% of the Moon is Illuminated
Jun 12
Full
Jun 13
Full
Jun 19
Last Quarter
Jun 27
New
Jul 5
First Quarter

Hourly Weather History & Observations

Time (EDT) Temp. Dew Point Humidity Pressure Visibility Wind Dir Wind Speed Gust Speed Precip Events Conditions
12:51 AM 66.0 °F 61.0 °F 84% 29.85 in 10.0 mi SE 6.9 mph - 0.00 in   Overcast
1:51 AM 66.0 °F 61.0 °F 84% 29.82 in 10.0 mi SSE 9.2 mph - N/A   Overcast
2:51 AM 64.9 °F 61.0 °F 87% 29.82 in 10.0 mi SSE 6.9 mph - N/A   Overcast
3:51 AM 64.9 °F 61.0 °F 87% 29.84 in 10.0 mi SE 8.1 mph - N/A   Overcast
4:51 AM 64.9 °F 60.1 °F 84% 29.83 in 10.0 mi SE 9.2 mph - N/A   Overcast
5:51 AM 64.0 °F 60.1 °F 87% 29.84 in 10.0 mi SE 10.4 mph - N/A   Clear
6:51 AM 64.0 °F 60.1 °F 87% 29.86 in 10.0 mi SSE 9.2 mph - N/A   Clear
7:51 AM 64.9 °F 61.0 °F 87% 29.86 in 10.0 mi SSE 9.2 mph - N/A   Clear
8:51 AM 66.9 °F 61.0 °F 81% 29.89 in 10.0 mi SSE 12.7 mph - N/A   Mostly Cloudy
10:19 AM 69.8 °F 60.8 °F 73% 29.97 in 10.0 mi SSE 12.7 mph 16.1 mph N/A   Mostly Cloudy
10:51 AM 71.6 °F 62.6 °F 73% 29.97 in 10.0 mi SSE 12.7 mph 18.4 mph N/A   Mostly Cloudy
11:46 AM 71.6 °F 60.8 °F 69% 29.96 in 10.0 mi Variable 4.6 mph - N/A   Overcast
11:51 AM 72.0 °F 60.1 °F 66% 29.87 in 10.0 mi WSW 6.9 mph - N/A   Overcast
12:02 PM 70.0 °F 62.1 °F 76% 29.97 in 1.8 mi SSW 6.9 mph - 0.00 in Rain Rain
12:13 PM 66.9 °F 62.1 °F 84% 29.97 in 3.0 mi WSW 10.4 mph 17.3 mph 0.11 in Rain Light Rain
12:18 PM 66.0 °F 62.1 °F 87% 29.97 in 2.0 mi WSW 11.5 mph - 0.11 in Rain Heavy Rain
12:25 PM 66.0 °F 62.1 °F 87% 29.98 in 1.2 mi SSW 9.2 mph - 0.20 in Rain Heavy Rain
12:37 PM 66.0 °F 62.1 °F 87% 29.97 in 2.5 mi SSW 6.9 mph - 0.26 in Rain Light Rain
12:44 PM 66.0 °F 63.0 °F 90% 29.97 in 6.0 mi SSW 5.8 mph - 0.26 in Rain Light Rain
12:51 PM 66.9 °F 63.0 °F 87% 29.89 in 10.0 mi SW 5.8 mph - 0.26 in Rain Light Rain
2:51 PM 75.0 °F 62.1 °F 64% 29.84 in 10.0 mi WSW 6.9 mph - N/A   Scattered Clouds
3:51 PM 75.0 °F 61.0 °F 62% 29.83 in 10.0 mi WNW 8.1 mph - N/A   Clear
4:51 PM 73.9 °F 59.0 °F 59% 29.81 in 10.0 mi NNW 9.2 mph - N/A   Scattered Clouds
5:51 PM 72.0 °F 59.0 °F 64% 29.82 in 10.0 mi WNW 4.6 mph - N/A   Clear
6:51 PM 71.1 °F 62.1 °F 73% 29.83 in 10.0 mi Calm Calm - N/A   Clear
7:51 PM 69.1 °F 62.1 °F 78% 29.84 in 10.0 mi SSE 4.6 mph - N/A   Mostly Cloudy
8:22 PM 66.9 °F 61.0 °F 81% 29.94 in 3.0 mi West 13.8 mph 24.2 mph 0.02 in Rain Heavy Rain
8:27 PM 64.0 °F 59.0 °F 84% 29.95 in 2.0 mi West 21.9 mph 27.6 mph 0.10 in Rain Heavy Rain
8:34 PM 63.0 °F 59.0 °F 87% 29.95 in 1.0 mi West 11.5 mph 27.6 mph 0.25 in Rain Heavy Rain
8:42 PM 63.0 °F 60.1 °F 90% 29.95 in 0.8 mi South 9.2 mph - 0.62 in Rain Heavy Rain
8:45 PM 62.6 °F 60.8 °F 94% 29.95 in 1.0 mi South 6.9 mph - 0.70 in Rain Heavy Rain
8:51 PM 63.0 °F 60.1 °F 90% 29.87 in 2.5 mi SW 5.8 mph - 0.73 in Rain Heavy Rain
9:04 PM 63.0 °F 60.1 °F 90% 29.94 in 4.0 mi Variable 3.5 mph - 0.06 in Rain Rain
9:51 PM 63.0 °F 60.1 °F 90% 29.86 in 8.0 mi SSE 3.5 mph - 0.14 in Rain Light Rain
10:51 PM 62.6 °F 59.0 °F 88% 29.94 in 10.0 mi South 8.1 mph - N/A   Clear
11:51 PM 62.1 °F 59.0 °F 90% 29.86 in 10.0 mi Calm Calm - N/A   Overcast